Location: Beuerbach
(48.1459°N, 10.9174°E)
Time: 22:00:02
(UTC+00:00)

SL-16 R/B - Pass Details

Date: 08 August 2024
Orbit: 842 x 845 km, 71.0° (Epoch: 07 September)

Event Time Altitude Azimuth Distance (km) Brightness Sun altitude
Exits shadow 01:25:33 20° 267° (W) 1,879 3.7 -20.2°
Maximum altitude 01:28:27 30° 312° (NW) 1,478 3.5 -19.9°
Drops below altitude 10° 01:33:24 10° 13° (NNE) 2,476 5.7 -19.5°
Sets 01:36:11 0° 24° (NNE) 3,415 6.9 -19.2°
